Regional Weather Roundup
Issued by NWS

Home | Current Version | Previous Version | Text Only | Print | Product List | Glossary On
Versions: 1 2 3 4 5 6 7 8 9 10 11 12 13 14 15 16 17 18 19 20 21 22 23 24 25 26 27 28 29 30 31 32 33 34 35 36 37 38 39 40 41 42 43 44 45 46 47 48 49 50
000
ASUS46 KSTO 190809
RWRCA

NORTHERN AND CENTRAL CA REGIONAL WEATHER ROUNDUP
NATIONAL WEATHER SERVICE SACRAMENTO CA
100 AM PDT THU OCT 19 2017

NOTE: FAIR INDICATES FEW OR NO CLOUDS BELOW 12,000 FEET WITH NO
SIGNIFICANT WEATHER AND/OR OBSTRUCTIONS TO VISIBILITY.

CAZ001-003-190900-
NORTHWEST AREA

CITY           SKY/WX    TMP DP  RH WIND       PRES   REMARKS
CRESCENT CITY  CLOUDY    52  52 100 S12       29.97F
ARCATA         NOT AVBL
SHELTER COVE   NOT AVBL
UKIAH          CLEAR     44  36  73 CALM      29.97F
$$

CAZ006-505>513-190900-
BAY AREA

CITY           SKY/WX    TMP DP  RH WIND       PRES   REMARKS
SANTA ROSA     CLOUDY    49  48  97 W3        29.98F
SAN RAFAEL     N/A       53  MM  MM MISG
NAPA           CLOUDY    54  51  90 W8        29.99F
CONCORD        CLEAR     56  50  80 S8        29.99F
OAKLAND CITY   N/A      MM  MM  MM MISG
OAKLAND        CLOUDY    54  53  97 W9        30.02F
SAN FRAN CITY  N/A       53  MM  98 MISG
SAN FRAN ARPT  MOCLDY    55  52  89 W6        30.02F
LIVERMORE      CLEAR     50  47  89 W6        30.00F
HAYWARD        CLOUDY    56  49  77 SW6       30.02S
REDWOOD CITY   N/A       51  MM  86 MISG
MOFFETT ARPT   MOCLDY    54  52  93 S3        30.03F
SAN JOSE ARPT  CLOUDY    55  52  89 CALM      30.03F
$$
CAZ034-037-514>518-190900-
CENTRAL COAST

CITY           SKY/WX    TMP DP  RH WIND       PRES   REMARKS
WATSONVILLE    CLOUDY    50  50 100 SW6       30.03S
SALINAS        CLOUDY    51  50  96 SW5       30.02F FOG
MONTEREY       CLOUDY    51  50  96 W5        30.03R
PT PIEDRAS BLS NOT AVBL
SAN LUIS OBISP CLOUDY    55  52  89 NW6       29.98S
SANTA MARIA    CLOUDY    55  54  96 NW5       29.99S FOG
$$
CAZ015-016-190900-
NORTHERN SACRAMENTO VALLEY

CITY           SKY/WX    TMP DP  RH WIND       PRES   REMARKS
REDDING        CLEAR     53  35  50 N5        29.89F
RED BLUFF      CLEAR     51  36  56 NW5       29.90S
OROVILLE       CLEAR     60  38  43 SE10      29.92F
$$
CAZ016>018-190900-
SOUTHERN SACRAMENTO VALLEY

CITY           SKY/WX    TMP DP  RH WIND       PRES   REMARKS
AUBURN         CLEAR     59 N/A N/A SE6       29.98R
BEALE AFB      CLEAR     56  40  54 SE10      29.90F
LINCOLN        FAIR      57  37  47 SE8       29.93S
MARYSVILLE     CLEAR     58  45  62 SE12      29.92S
SAC INTL ARPT  CLEAR     53  48  83 SE13      29.92F
MATHER AIRPORT NOT AVBL
DOWNTOWN SAC   N/A       55  MM  MM MISG
SAC EXEC ARPT  CLEAR     54  49  83 S8G16     29.95S
VACAVILLE      CLEAR     58  46  64 S6G20     29.92F
TRAVIS AFB     CLEAR     53  50  90 SW23      29.93S
$$
CAZ019>021-190900-
SAN JOAQUIN VALLEY

CITY           SKY/WX    TMP DP  RH WIND       PRES   REMARKS
STOCKTON       CLEAR     58  43  57 NW9       29.96S
MODESTO        CLEAR     52  44  74 CALM      29.95S
MERCED         CLEAR     51  38  60 CALM      29.94F HAZE
LEMOORE        CLEAR    N/A N/A N/A N6        29.95F
FRESNO         CLEAR     58  44  60 NW5       29.96R
HANFORD        PTCLDY    59  43  55 N5        29.95S
PORTERVILLE    CLEAR     56  43  61 E3        29.96S
BAKERSFIELD    CLEAR     61  36  39 CALM      29.94F
$$
CAZ011-012-071-190900-
NORTHERN MOUNTAINS

CITY           SKY/WX    TMP DP  RH WIND       PRES   REMARKS
YREKA          PTCLDY    46  23  40 NE8       29.91S
MOUNT SHASTA   CLEAR     55  30  38 CALM      29.96F
ALTURAS        CLEAR     41  22  46 S5        29.99F
$$
CAZ011-012-071-190900-
SIERRA NEVADA MTNS

CITY           SKY/WX    TMP DP  RH WIND       PRES   REMARKS
BLUE CANYON    CLEAR     54  23  30 SE6       30.11F
TRUCKEE        CLEAR     30  21  69 CALM      30.12F
TAHOE VLY ARPT CLEAR     33  25  72 CALM      30.13S
MAMMOTH LAKES  FAIR      33  17  52 NW3       30.18F
$$



USA.gov is the U.S. government's official web portal to all federal, state and local government web resources and services.